www.pogodaiklimat.ru

Погода и климат >> Архив погоды >> Италия >> Roma


АРХИВ ПОГОДЫ в Roma

Время (UTC), дата Ветер
(напр.,м/с)
 
Видим.   Явления Облачность Т
(С)
Тd
(С)
f
(%)
Тe
(С)
Тes
(С)
Комфортность P
(гПа)
Po
(гПа)
Тmin
(С)
Tmax
(С)
R
(мм)
R24
(мм)
S
(см)
18 14.10 СЗ 3 15 км 1/0
[Ci fib]
+18.2 +16.5 90 +19 +19 тепло 1027.2 1026.7 +24.0
21 14.10 СВ 1 10 км ясно +14.6 +13.9 96 +16 +16 по сезону 1027.5 1027.0
00 15.10 СЗ 1 4000 м дымка ясно +11.9 +11.5 97 +12 +12 по сезону 1027.7 1027.2
03 15.10 СВ 2 7000 м дымка ясно +12.6 +11.8 95 +12 +12 по сезону 1027.5 1027.0
06 15.10 СВ 2 45 км 1/0
[Ci fib]
+12.6 +9.5 81 +12 +12 по сезону 1028.1 1027.6 +10.7
09 15.10 СВ 3 45 км 1/0
[Ci fib]
+21.5 +10.1 48 +23 +27 комфорт 1028.8 1028.3
12 15.10 З 4 45 км 1/0
[Ci fib]
+22.2 +15.9 67 +26 +32 душно 1027.9 1027.4
15 15.10 З 4 35 км 1/0
[Ci fib]
+21.6 +16.3 72 +25 +27 комфорт 1027.1 1026.7
18 15.10 З 2 35 км 1/0
[Ci fib]
+18.3 +16.7 90 +19 +19 тепло 1027.3 1026.8 +24.5
21 15.10 СВ 1 35 км 1/0
[Ci fib]
+14.7 +14.0 96 +16 +16 по сезону 1027.6 1027.1
00 16.10 В 1 5000 м дымка ясно +12.5 +12.0 97 +12 +12 по сезону 1027.4 1026.9 0.2
03 16.10 СВ 2 6000 м местами туман поземный ясно +11.7 +11.1 96 +10 +10 прохладно 1026.8 1026.4
06 16.10 СВ 2 10 км ясно +11.0 +8.9 87 +10 +10 прохладно 1027.4 1026.9 +10.7 0.2
09 16.10 В 2 10 км ясно +21.0 +10.5 51 +24 +29 комфорт 1028.3 1027.8
12 16.10 З 4 25 км ясно +23.4 +17.8 71 +29 +35 душно 1027.3 1026.9
15 16.10 З 3 23 км ясно +21.9 +15.7 68 +26 +27 душно 1026.5 1026.0
18 16.10 З 2 20 км ясно +17.7 +16.4 92 +18 +18 по сезону 1026.8 1026.3 +24.0
21 16.10 В 2 20 км ясно +14.5 +13.8 96 +14 +14 по сезону 1026.9 1026.5
00 17.10 СВ 1 2000 м туман местами ясно +11.2 +10.9 98 +11 +11 прохладно 1026.3 1025.8 0.2
03 17.10 В 2 8000 м дымка {туман} ясно +11.1 +10.4 95 +10 +10 прохладно 1025.4 1024.9
06 17.10 В 2 10 км 3/0
[Ac trans]
+11.6 +9.8 89 +10 +10 прохладно 1026.1 1025.6 +10.3 0.2
09 17.10 В 3 10 км дымка {туман} 3/3 500 м
[Cu hum]
+18.9 +16.9 88 +21 +24 комфорт 1026.5 1026.0
12 17.10 Ю 3 15 км 3/3 600 м
[Cu hum]
+22.4 +15.8 66 +26 +31 жарко 1024.8 1024.3
15 17.10 0 н/о +20.7 +16.0 74 +20 +21 по сезону 1023.6 1023.1
18 17.10 С 1 15 км 3/0
[Ci fib]
+16.7 +15.5 93 +18 +18 по сезону 1023.4 1022.9 +23.3
21 17.10 СВ 2 15 км дымка 3/0
[Ci fib]
+13.2 +12.3 94 +12 +12 прохладно 1023.4 1022.9
00 18.10 СВ 2 15 км дымка {туман} 3/3 500 м
[Cu hum]
+10.8 +10.4 97 +9 +9 прохладно 1022.7 1022.2 0.2
03 18.10 В 3 1000 м переохл. туман 3/3 500 м
[Cu hum]
+12.2 +11.8 97 +10 +10 прохладно 1021.9 1021.6
06 18.10 В 2 1500 м туман местами 8/8 90 м
[St]
+12.0 +11.5 97 +11 +11 по сезону 1021.4 1020.9 +9.4 0.2
09 18.10 В 3 5000 м дымка ясно +19.0 +14.8 77 +21 +25 комфорт 1021.6 1021.2
12 18.10 З 3 12 км 4/0
[Ci fib]
+21.4 +15.1 67 +25 +30 комфорт 1020.0 1019.5
15 18.10 З 3 15 км 3/0
[Ci fib]
+20.4 +14.7 70 +23 +25 комфорт 1018.9 1018.4
18 18.10 С 1 10 км 3/0
[Ci fib]
+15.6 +13.9 90 +17 +17 по сезону 1019.1 1018.6 +22.1
21 18.10 В 1 8000 м дымка ясно +12.8 +11.8 94 +13 +13 прохладно 1019.7 1019.2
03 19.10 В 2 2500 м туман местами ясно +10.6 +10.2 97 +9 +9 прохладно 1018.6 1018.1
06 19.10 В 2 4500 м дымка {туман} 6/6 600 м
[Sc]
+11.2 +10.5 95 +10 +10 прохладно 1018.9 1018.4 +10.0 0.2
09 19.10 В 4 10 км 4/4 600 м
[Cu hum]
+18.6 +13.5 72 +19 +21 тепло 1019.3 1018.8
12 19.10 Ю 2 18 км 8/0
[Ci]
+22.1 +14.1 60 +25 +31 комфорт 1018.0 1017.6
15 19.10 Ю 4 30 км 6/0
[Ci]
+20.9 +14.6 67 +24 +25 комфорт 1017.0 1016.5
18 19.10 С 1 20 км 5/0
[Ci]
+15.9 +12.9 82 +17 +17 по сезону 1017.4 1017.8 +22.6
21 19.10 В 2 15 км 4/0
[Ci]
+14.6 +13.5 93 +14 +14 по сезону 1018.1 1017.6
00 20.10 СВ 1 6000 м дымка 1/0
[Ac trans Ci]
+12.6 +12.0 96 +12 +12 по сезону 1018.2 1017.7
03 20.10 В 3 7000 м дымка ясно +11.7 +11.1 96 +10 +10 прохладно 1018.1 1017.6
06 20.10 В 2 5000 м дымка ясно +12.3 +11.6 95 +11 +11 по сезону 1018.8 1018.3 +11.0
09 20.10 В 3 5000 м ясно +19.3 +13.4 69 +21 +25 комфорт 1020.0 1019.5
12 20.10 З 3 5000 м ясно +22.3 +15.2 64 +26 +32 жарко 1019.2 1018.7
15 20.10 З 3 20 км ясно +21.6 +15.4 68 +25 +26 комфорт 1019.2 1018.7
18 20.10 СЗ 2 20 км ясно +16.8 +14.7 87 +17 +17 по сезону 1020.5 1020.0 +23.1
21 20.10 В 2 7000 м дымка ясно +13.6 +12.8 95 +13 +13 прохладно 1021.4 1020.9
00 21.10 СВ 2 4000 м дымка ясно +10.8 +10.2 96 +9 +9 прохладно 1021.4 1020.9
03 21.10 В 1 2000 м дымка ясно +11.8 +11.4 97 +12 +12 по сезону 1021.0 1020.5
06 21.10 В 2 6000 м дымка ясно +11.0 +10.2 95 +10 +10 по сезону 1021.5 1021.0 +9.8 0.2
09 21.10 В 2 15 км ясно +19.7 +13.4 67 +22 +27 комфорт 1022.2 1021.7
12 21.10 З 4 20 км 1/1 1000 м
[Cu hum Ci fib]
+21.5 +13.8 62 +24 +29 комфорт 1021.1 1020.6
15 21.10 З 4 30 км 1/1 1000 м
[Cu hum Ci fib]
+21.0 +16.6 76 +25 +26 комфорт 1020.7 1020.3

 

Местоположение метеостанции Roma (Италия): широта 41.80 долгота 12.23 высота над уровнем моря 3 м.

В архиве по умолчанию представлена погода в Roma за последнюю неделю. Архивные данные за месяц целиком и за предыдущие месяцы, начиная с января 2011 года, Вы можете получить, выбрав интересующий диапазон дат из раскрывающегося списка и нажав кнопку "Ввод!".

Внимание! Время в таблицах - всемирное. Для получения местного времени необходимо прибавить поправку, которая в Roma равна 1 ч.

Смотрите также архив погоды в соседних городах и на ближайших метеорологических станциях:

Погода в Pratica di Mare (Италия) (25 км)
Погода в Vigna di Valle (Италия) (31 км)
Погода в Civitavecchia (Италия) (42 км)
Погода в Guidonia (Италия) (47 км)
Погода в Latina (Италия) (62 км)
Погода в Latina (Италия) (62 км)
Погода в Viterbo (Италия) (72 км)
Погода в Frosinone (Италия) (91 км)
Погода в Torre Olevola (Италия) (96 км)
Погода в Monte Terminillo (Италия) (97 км)

Пояснения к столбцам:

Ветер - указаны скорость ветра в м/с - средняя за 10 мин, порывы в срок и между сроками (в фигурных скобках) и направление, откуда дует ветер: С - северный, СВ - северо-восточный, В - восточный, ЮВ - юго-восточный, Ю - южный, ЮЗ - юго-западный, З - западный, СЗ - северо-западный.
Видимость - горизонтальная дальность видимости в метрах или километрах. При видимости от 1 до 10 км при отсутствии осадков обычно наблюдается дымка, при ухудшении видимости до 1 км и менее - туман. В сухую погоду видимость может ухудшаться дымом, пылью или мглою.
Явления - указаны атмосферные явления, наблюдавшиеся в срок или в последний час перед сроком; фигурными скобками обозначены явления, наблюдавшиеся между сроками (за 1-3 часа до срока); квадратными скобками обозначены град или гололедные отложения с указанием их диаметра в мм.
Облачность - указаны через наклонную черту общая и нижняя облачность в баллах и высота нижней границы облаков в метрах; квадратными скобками обозначены формы облаков: Ci - перистые, Cs - перисто-слоистые, Cc - перисто-кучевые, Ac - высококучевые, As - высокослоистые, Sc - слоисто-кучевые, Ns - слоисто-дождевые, Cu - кучевые, Cb - кучево-дождевые. Подробнее классификацию облаков см. в Атласе облаков (PDF).
T - Температура воздуха - температура, измеренная на высоте 2 м над землей.
Td - Температура точки росы - температура, при понижении до которой содержащийся в воздухе водяной пар достигнет насыщения.
f - Относительная влажность воздуха - влажноcть воздуха, измеренная на высоте 2 м над землей.
Te - Эффективная температура - температура, которую ощущает одетый по сезону человек в тени. Характеристика душности погоды. При расчете учитывается влияние влажности воздуха и скорости ветра на теплоощущения человека.
Tes - Эффективная температура на солнце - температура, которую ощущает человек, с поправкой на солнечный нагрев. Характеристика знойности погоды. Зависит от высоты солнца над горизонтом, облачности и скорости ветра. Ночью, в пасмурную погоду, а также при ветре 12 м/с и более поправка равна нулю.
P - Атмосферное давление - приведенное к уровню моря атмосферное давление.
Po - Атмосферное давление - измеренное на уровне метеостанции атмосферное давление.
Tmin - Минимальная температура - минимум температуры воздуха на высоте 2 м над землей.
Tmax - Максимальная температура - максимум температуры воздуха на высоте 2 м над землей.
R - Количество осадков - Количество выпавших осадков за период времени, мм. При наведении курсора мыши на число - период времени, за который выпало указанное количество осадков.
R24 - Количество осадков - Количество выпавших осадков за 24 часа, мм.
S - Снежный покров - Высота снежного покрова, см. При наведении курсора мыши на число - состояние снежного покрова и степень покрытия местности в баллах.